SCP
0 0 0 0 0 0 0 0 0 0 0 0 0 0 0 0 0 0 0 0 0 0 0 0 0 0 0 0 0 0 0 0 0 0 0 0 0 0 0 0 0 0 0 0 0 0 0 0 0 0 0 0 0 0
0 0 0 0 0 0 0 0 0 0 0 0 0 0 0 0 0 0 0 0 0 0 0 0 0 0 0 0 0 0 0 0 0 0 0 0 0 0 0 0 0 0 0 0 0 0 0 0 0 0 0 0 0 0
0 0 0 0 0 0 0 0 0 0 0 0 0 0 0 0 0 0 0 0 0 0 0 0 0 -0 0 0 0 0 0 0 0 0 0 0 0 0 0 0 0 0 0 0 0 0 0 0 0 0 0 0 0 0
0 0 0 0 0 0 0 0 0 0 0 0 0 0 0 0 0 0 0 0 0 0 0 0 0 0 0 0 0 0 0 0 0 0 0 0 0 0 0 0 0 0 0 0 0 0 0 0 0 0 0 0 0 0
0 0 0 0 0 0 0 0 0 0 0 0 0 0 0 0 0 0 0 0 0 0 0 0 0 0 0 0 0 0 0 0 0 0 0 0 0 0 0 0 0 0 0 0 0 0 0 0 0 0 0 0 0 0
0 0 0 0 0 0 0 0 0 0 0 0 0 0 0 0 0 0 0 0 0 0 0 0 0 0 0 0 0 0 0 0 0 0 0 0 0 0 0 0 0 0 0 0 0 0 0 0 0 0 0 0 0 0
0 0 0 0 0 0 0 0 0 0 0 0 0 0 0 0 0 0 0 0 0 0 0 0 0 0 0 0 0 0 0 0 0 0 0 0 0 0 0 0 0 0 0 0 0 0 0 0 0 0 0 0 0 0
0 0 0 0 0 0 0 0 0 0 0 0 0 0 0 0 0 0 0 0 0 0 0 0 0 0 0 0 0 0 0 0 0 0 0 0 0 0 0 0 0 0 0 0 0 0 0 0 0 0 0 0 0 0
0 0 0 0 0 0 0 0 0 0 0 0 0 0 0 0 0 0 0 0 0 0 0 0 0 0 0 0 0 0 0 0 0 0 0 0 0 0 0 -0 0 0 0 0 0 0 0 0 0 0 0 0 0 0
0 0 0 0 0 0 0 0 0 0 0 0 0 0 0 0 0 0 0 0 0 0 0 0 0 0 0 0 0 0 0 0 0 0 0 0 0 -0 0 0 0 0 0 0 0 0 0 0 0 0 0 0 0 0
0 0 0 0 0 0 0 0 0 0 0 0 0 0 0 0 0 0 0 0 0 0 0 0 -0 0 0 0 0 0 0 0 0 0 0 0 0 0 0 0 0 0 0 0 0 -0 0 0 0 0 0 0 0 0
0 0 0 0 0 0 0 0 0 0 0 0 0 0 0 0 0 0 0 0 0 0 0 -0 0 0 0 0 0 0 0 0 0 0 0 0 0 0 -0 -0 -0 0 0 -0 -0 -0 -0 -0 0 0 -0 -0 0 0
0 0 0 0 0 0 0 0 0 0 0 0 0 0 0 0 0 0 -0 0 0 0 -0 0 -0 0 0 0 0 0 0 0 -0 0 0 -0 0 -0 0 0 0 -0 -0 -0 -0 -0 -0 0 0 0 -0 0 0 0
0 0 0 0 0 -0 -0 0 -0 0 0 0 0 0 0 0 0 0 0 0 0 0 -0 -0 0 0 -0 0 -0 0 0 0 0 0 -0 0 -0 -0 -0 -0 -0 -0 -0 -0 -0 0 0 0 0 0 0 0 0 0
-0 0 0 0 0 0 0 -0 -0 0 0 0 0 0 0 0 0 0 0 0 0 0 -0 -0 0 -0 0 0 0 0 0 0 -0 -0 0 0 0 -0 -0 -0 -0 -0 -0 -0 -0 0 -0 0 -0 -0 0 0 0 0
0 0 0 -0 0 0 0 0 0 0 0 0 0 0 0 0 0 0 0 0 0 0 0 -0 -0 -0 -0 -0 -0 -0 -0 -0 0 0 0 -0 -0 -0 -0 -0 -0 -0 -0 -0 -0 -0 -0 0 0 -0 0 -0 -0 -0
0 0 0 0 0 0 0 0 0 0 0 0 0 0 0 0 0 0 0 0 0 0 0 0 0 0 0 -0 0 0 -0 -0 -0 -0 -0 -0 -0 -0 -0 -0 -0 -0 -0 -0 -0 -0 -0 0 -0 -0 -0 -0 -0 0
0 0 0 0 0 0 0 0 0 0 0 0 0 0 0 0 0 0 0 0 0 0 -0 -0 0 -0 -0 0 -0 0 0 0 -0 -0 -0 -0 -0 -0 -0 -0 0 0 -0 0 0 -0 -0 -0 -0 -0 0 -0 0 0
0 0 0 0 0 0 0 0 0 0 0 0 0 0 0 0 0 0 0 0 -0 -0 0 -0 0 0 -0 0 0 0 -0 0 -0 -0 -0 -0 -0 0 -0 0 0 0 0 0 0 0 0 -0 -0 -0 -0 0 0 -0
-0 -0 0 0 0 0 0 0 0 0 0 0 0 0 0 0 0 0 0 -0 -0 -0 -0 0 0 0 0 0 0 0 -0 -0 -0 -0 -0 -0 0 -0 -0 -0 -0 0 0 0 0 -0 -0 -0 0 0 -0 -0 -0 -0
0 0 0 0 0 0 0 0 0 0 0 0 0 0 0 -0 -0 -0 -0 -0 -0 0 0 0 0 -0 0 0 0 0 -0 -0 -0 -0 0 0 -0 -0 -0 -0 0 -0 0 -0 -0 -0 0 0 0 -0 -0 -0 -0 -0
0 0 0 0 0 0 0 0 0 0 0 0 0 0 0 0 0 0 -0 -0 0 0 0 0 0 0 0 -0 -0 -0 -0 -0 -0 0 0 0 0 -0 -0 -0 0 -0 -0 -0 0 -0 -0 -0 -0 0 0 0 -0 0
0 0 0 0 0 0 0 0 0 0 0 0 0 0 0 0 -0 -0 0 0 0 -0 -0 0 0 0 -0 -0 -0 -0 -0 -0 -0 -0 -0 0 0 -0 -0 0 -0 0 -0 -0 -0 0 0 -0 -0 -0 -0 -0 -0 -0
0 -0 -0 -0 -0 -0 -0 -0 0 0 0 0 0 0 0 -0 -0 -0 -0 0 0 0 0 0 0 0 -0 -0 -0 -0 -0 -0 -0 0 -0 -0 0 0 -0 -0 -0 0 0 0 0 -0 -0 -0 -0 -0 -0 -0 -0 -0
0 0 -0 -0 -0 -0 -0 -0 -0 -0 0 0 0 0 0 0 0 0 0 0 0 0 0 0 0 0 0 -0 -0 -0 -0 0 0 -0 0 -0 -0 -0 -0 -0 -0 0 0 0 0 -0 -0 -0 -0 -0 -0 -0 -0 -0
0 0 0 0 0 0 0 0 0 0 0 0 0 0 0 0 0 0 0 0 0 0 0 0 0 0 -0 0 0 0 -0 -0 -0 -0 -0 0 -0 -0 -0 0 0 0 0 -0 -0 -0 -0 0 -0 -0 -0 0 0 -0
0 0 0 0 0 0 0 0 0 0 0 0 0 0 0 0 0 0 0 0 -0 -0 -0 -0 -0 -0 0 0 -0 -0 -0 -0 -0 -0 -0 -0 -0 -0 0 0 0 0 0 0 0 0 0 0 0 0 -0 0 0 0
0 0 0 0 0 0 0 0 0 0 0 0 0 0 0 0 0 0 0 0 0 0 0 0 0 -0 0 -0 -0 -0 0 0 0 0 0 0 0 0 0 0 0 0 0 0 0 0 0 0 0 0 0 0 0 0
0 0 0 0 0 0 0 0 0 0 0 0 0 0 0 0 0 0 0 0 0 0 -0 -0 -0 -0 0 -0 -0 -0 -0 -0 -0 -0 0 0 0 0 0 0 0 0 0 0 0 0 0 -0 0 0 0 0 0 0
0 0 0 0 0 0 0 0 0 0 0 0 0 0 -0 -0 0 0 -0 0 0 0 0 -0 -0 -0 -0 -0 0 -0 -0 -0 -0 0 0 0 0 0 0 0 0 0 0 0 0 0 0 0 0 0 0 0 0 0
0 0 0 0 0 0 0 0 -0 -0 -0 -0 0 -0 0 0 0 -0 0 0 0 -0 -0 -0 -0 -0 -0 -0 -0 -0 -0 -0 -0 -0 -0 -0 0 0 0 0 0 0 0 0 0 0 0 0 0 0 0 0 0 0
0 -0 -0 0 -0 -0 -0 -0 -0 0 0 -0 -0 -0 0 0 0 -0 0 0 -0 0 0 -0 -0 -0 -0 -0 -0 0 0 0 0 0 0 0 0 0 0 0 0 0 0 0 0 0 0 0 0 0 0 0 0 0
-0 -0 -0 -0 -0 -0 -0 -0 -0 -0 -0 -0 -0 0 0 0 0 0 0 0 -0 -0 -0 -0 -0 -0 -0 0 0 0 0 0 0 0 0 0 0 0 0 0 0 0 0 0 0 0 0 0 0 0 0 0 0 0
Wind_Speed_500mb
43 52 46 42 39 38 39 37 34 29 29 25 23 18 8 9 16 15 10 15 13 12 30 36 33 35 31 24 16 17 18 13 13 9 8 14 21 29 37 50 45 40 20 34 37 45 52 14 11 34 13 4 6 4
41 43 49 49 40 41 35 37 30 27 29 28 27 22 15 15 15 17 24 21 20 28 31 44 39 39 41 38 37 16 17 11 6 6 6 7 11 14 30 32 36 40 40 29 22 28 1 3 19 7 3 5 4 8
30 32 35 47 41 39 37 34 32 33 30 23 25 23 21 18 20 19 26 26 22 18 39 29 24 21 33 39 45 35 36 36 23 17 2 5 11 7 12 22 22 39 49 31 34 41 37 26 11 3 3 5 4 5
30 30 32 36 39 36 35 34 31 34 29 26 24 23 22 19 21 22 22 22 17 10 10 17 9 19 23 29 40 50 51 30 17 11 2 6 6 10 5 10 7 19 23 26 39 42 15 14 13 9 6 10 11 11
31 32 32 32 34 34 35 34 34 33 30 27 28 22 21 19 20 19 17 17 17 17 9 37 57 16 14 31 43 44 48 49 41 16 9 7 9 12 13 12 23 17 23 10 11 27 25 28 19 20 24 24 23 24
26 30 32 31 31 33 32 29 37 35 24 30 29 18 21 22 25 14 6 15 21 23 8 7 17 18 9 10 24 37 46 44 38 12 12 17 32 11 9 24 46 57 65 47 47 55 47 48 45 43 42 40 41 35
26 27 30 37 31 36 31 25 25 34 24 21 22 22 26 26 25 18 3 6 6 11 6 11 10 7 7 3 4 11 25 21 24 13 15 37 37 23 9 35 42 51 40 45 51 50 65 64 59 60 55 55 53 50
25 27 27 26 24 25 31 28 28 27 24 26 29 27 24 24 27 29 27 18 11 6 6 6 10 16 8 4 4 8 14 25 16 16 15 23 23 19 13 34 50 55 59 59 62 63 67 62 61 63 58 52 53 52
29 31 28 29 29 29 29 29 29 26 30 28 25 26 20 21 20 23 18 15 13 11 5 8 7 6 3 12 6 6 11 8 13 9 13 10 9 15 22 33 24 31 42 46 49 51 53 57 59 59 59 60 60 59
23 30 35 34 33 30 29 30 31 32 31 32 30 15 10 16 13 12 12 8 10 10 12 12 18 18 32 28 11 6 13 5 6 9 6 8 15 54 57 52 39 23 27 29 37 46 45 47 53 57 59 61 60 55
24 25 29 30 32 36 31 33 34 41 38 43 15 8 16 24 17 8 6 10 11 8 14 14 23 18 10 8 5 10 5 9 6 6 7 7 11 13 8 11 19 37 46 52 55 60 61 59 57 58 57 54 54 56
36 30 32 31 31 31 34 38 39 49 36 30 18 30 27 9 5 5 7 8 10 8 15 12 6 12 10 11 9 9 8 6 10 8 7 8 4 5 13 28 46 71 67 63 56 50 47 47 47 49 53 52 54 56
32 43 36 38 36 36 39 41 40 42 38 30 12 12 10 8 9 10 13 9 8 13 12 12 8 9 10 12 11 7 9 10 8 7 7 9 7 13 39 52 82 95 75 53 39 31 26 26 28 32 33 29 28 24
28 37 39 40 40 41 40 48 46 48 42 9 12 11 10 9 11 12 12 2 5 9 9 14 11 8 12 7 7 8 7 6 7 8 11 9 29 52 61 90 83 78 53 38 20 9 17 19 16 14 10 9 7 6
25 26 34 37 35 30 40 53 48 56 8 9 10 9 14 16 11 7 11 11 12 10 14 11 11 7 7 7 5 7 7 8 9 10 15 38 58 64 82 80 67 46 26 15 12 16 19 19 11 13 12 7 5 4
22 24 34 41 41 37 30 52 55 41 9 7 8 8 9 11 14 15 15 16 9 11 8 8 5 3 6 5 7 11 7 9 10 12 39 57 80 83 79 63 33 16 18 18 17 18 14 13 14 9 10 15 17 17
24 12 32 39 45 37 56 60 28 10 11 8 12 18 10 8 9 5 10 6 2 6 5 5 2 4 6 6 7 6 7 15 39 56 57 72 71 73 50 29 23 26 25 24 26 29 26 25 23 21 20 19 18 25
15 27 36 46 52 53 49 17 9 10 10 16 11 13 17 13 9 9 10 10 8 7 8 7 11 9 8 8 10 9 33 54 58 53 71 75 56 40 21 15 22 29 35 36 32 39 37 37 40 48 48 47 49 49
24 35 44 44 59 38 10 14 7 7 14 8 16 12 11 13 16 16 11 11 12 11 10 9 10 7 9 15 26 36 49 40 59 70 61 48 21 17 12 17 19 24 24 31 36 37 33 32 32 34 38 37 39 38
38 37 42 47 58 9 7 7 12 6 7 6 11 12 14 16 13 15 17 19 18 12 12 9 14 32 36 39 33 40 62 70 61 50 44 21 13 12 12 12 14 15 22 23 25 22 27 26 25 26 25 22 22 23
58 52 45 35 29 5 4 9 11 8 6 8 5 12 14 15 21 22 24 26 21 19 22 32 40 41 38 36 53 52 60 34 35 27 26 15 12 12 15 12 14 16 19 21 26 26 27 28 28 28 29 28 26 25
36 46 39 37 5 4 3 8 5 7 6 4 5 9 11 15 22 22 18 20 19 35 39 39 37 31 47 55 47 26 15 14 15 6 10 11 11 11 13 11 14 19 21 21 23 22 23 23 23 24 26 26 25 22
23 16 9 8 8 7 5 9 9 7 6 5 5 5 7 7 6 4 9 13 17 23 27 35 39 32 38 17 9 13 10 5 8 13 16 19 18 19 20 20 20 21 19 18 19 20 19 21 21 21 20 21 22 22
19 10 6 6 8 7 7 9 8 6 7 4 4 5 6 8 6 7 6 9 23 19 21 8 18 19 5 2 4 10 8 4 7 9 10 13 19 18 19 21 22 22 21 19 19 18 16 14 12 14 15 16 15 15
8 10 9 8 10 9 7 7 9 7 6 8 7 6 5 9 5 4 4 8 25 16 19 36 27 16 8 8 14 18 18 15 14 13 10 11 8 8 9 9 9 10 11 12 13 11 9 7 7 7 6 7 10 7
9 15 14 18 14 8 10 8 12 12 6 9 10 7 10 5 5 3 4 12 14 18 14 9 10 11 12 14 12 13 16 16 12 14 14 10 9 11 14 11 12 12 9 3 2 4 4 5 8 9 10 8 9 6
7 9 13 18 10 11 8 8 9 7 11 13 8 10 7 5 9 8 13 22 23 25 26 25 24 23 21 21 22 25 25 22 22 20 19 16 17 16 15 12 11 10 12 11 9 5 5 7 9 9 7 7 9 7
9 6 7 10 16 23 8 8 11 3 5 3 5 7 6 5 5 9 23 27 24 24 24 31 32 28 28 24 19 17 15 14 17 12 10 16 19 20 20 17 11 15 11 8 9 10 9 9 8 6 9 6 3 5
6 7 6 7 2 11 17 10 11 14 18 34 24 13 10 10 9 12 20 23 22 24 24 21 20 18 20 23 24 23 21 19 19 18 18 19 18 22 20 19 17 16 16 20 15 16 16 19 22 19 14 14 14 13
16 16 31 38 20 12 15 22 35 37 44 49 51 48 40 34 32 29 29 28 29 28 25 22 20 18 20 23 28 32 33 32 29 26 25 25 24 22 22 22 20 18 14 11 12 13 15 12 10 15 13 9 9 11
20 38 44 41 36 38 41 41 44 45 44 45 44 45 40 33 32 31 29 26 30 33 31 33 34 33 31 29 28 30 34 36 36 35 30 26 26 26 26 26 24 22 21 20 18 17 14 17 18 19 19 16 16 16
39 40 39 32 35 35 35 36 36 37 33 30 29 32 32 30 29 24 24 23 30 33 34 34 36 35 32 32 37 41 39 37 35 33 29 26 23 23 22 21 20 21 21 21 22 23 22 23 22 22 23 23 22 22
32 30 30 30 28 26 23 24 25 25 26 22 19 18 17 18 14 11 18 20 26 27 24 23 25 30 33 33 32 32 32 33 32 29 27 26 27 24 21 20 19 20 18 18 20 19 20 19 20 20 20 20 19 18
Wind_Direction_500mb
240 236 236 235 238 234 239 239 237 235 234 239 226 219 218 262 257 239 241 231 228 235 275 273 270 264 264 254 257 307 308 214 264 229 249 254 258 245 245 249 252 247 220 223 234 242 249 224 206 230 301 64 195 151
239 239 235 234 233 231 236 231 230 233 231 232 220 224 215 235 251 248 250 254 261 246 263 279 265 260 257 254 264 255 263 290 285 297 13 321 279 267 249 250 243 243 254 256 248 231 344 140 242 36 358 279 293 310
236 237 235 226 229 225 227 225 230 231 221 223 219 227 233 231 234 249 249 260 266 271 293 270 270 274 257 246 236 238 247 245 251 269 326 284 264 325 268 254 295 260 258 259 271 250 255 247 237 217 154 96 57 19
238 232 225 222 221 224 220 221 232 215 224 225 228 229 232 230 226 243 250 249 259 263 275 290 323 282 269 252 238 233 242 248 249 262 265 249 262 193 264 306 301 287 330 257 250 250 259 228 193 132 328 314 310 303
237 223 220 219 219 216 218 224 221 221 224 229 219 218 226 224 227 235 244 251 250 228 290 294 303 276 309 237 233 232 233 238 250 242 221 232 240 270 275 267 248 239 273 295 277 336 319 288 298 288 300 299 308 308
226 219 219 216 215 213 212 226 220 207 217 223 219 231 218 217 216 215 242 262 243 242 282 288 309 293 269 265 237 235 233 235 232 201 231 241 251 249 269 260 271 267 256 255 262 278 283 280 284 285 288 286 289 286
217 215 220 216 217 216 205 219 214 202 209 215 223 214 203 220 207 190 240 180 178 201 253 285 264 224 269 322 246 221 206 207 219 231 238 253 255 204 249 258 274 280 277 264 261 269 271 273 278 280 281 281 281 280
222 209 216 212 211 201 198 203 209 219 227 213 213 211 203 211 216 224 236 249 258 217 230 275 273 261 193 231 180 200 199 214 217 225 233 231 238 221 255 256 261 263 261 265 268 268 270 274 275 274 276 275 274 274
221 216 211 204 202 204 205 206 204 201 195 192 191 185 182 191 203 217 230 244 241 229 256 245 275 339 337 266 243 237 214 208 228 232 231 233 222 232 243 254 281 301 291 283 280 278 276 274 272 271 272 271 269 269
219 213 211 207 208 203 200 194 192 185 177 180 173 154 171 163 182 185 190 204 212 220 227 247 242 272 306 294 280 261 180 241 243 228 200 223 249 254 264 273 288 302 317 305 298 288 281 273 271 269 268 268 268 267
219 211 201 198 199 196 200 190 188 176 176 166 148 129 143 158 153 165 198 217 190 229 216 234 234 250 263 261 289 263 276 189 243 193 228 238 248 255 170 276 310 327 315 300 290 283 278 273 273 274 275 272 268 268
217 202 195 194 192 193 190 184 176 170 170 171 145 132 138 159 163 197 210 192 229 249 188 234 238 221 251 239 257 244 263 248 257 162 236 259 70 146 283 308 313 319 314 305 297 280 273 271 270 268 267 270 272 271
212 216 207 201 202 201 196 188 184 181 159 144 144 147 166 160 198 216 197 205 223 194 207 207 223 203 224 232 250 259 244 239 313 233 248 281 23 317 332 326 316 314 311 311 303 286 274 284 293 287 280 278 278 271
215 209 200 200 187 182 179 181 185 164 149 144 157 147 219 180 229 216 232 46 130 241 250 271 287 220 214 227 251 252 256 285 254 235 245 7 354 332 321 313 309 307 318 314 299 318 346 333 330 325 300 284 267 223
189 187 179 178 181 173 169 176 172 174 142 165 174 208 207 229 241 238 237 241 233 267 279 279 261 233 219 240 243 297 256 250 248 280 337 349 331 314 308 305 310 322 327 328 342 339 347 351 5 33 39 65 57 46
183 166 183 182 180 178 173 168 171 176 142 171 218 236 218 235 228 216 216 236 248 255 263 269 283 266 239 251 227 232 240 248 320 353 336 325 315 316 317 329 349 4 18 25 15 10 11 13 5 5 53 57 56 63
155 153 168 163 165 160 164 160 156 174 186 213 225 224 237 290 279 212 218 245 285 313 318 313 278 278 308 266 278 238 266 333 325 320 321 310 308 314 332 351 52 41 41 45 49 52 49 51 59 77 88 91 76 85
161 162 159 157 160 162 161 147 135 171 206 224 229 200 214 245 261 236 221 234 264 299 299 297 310 238 250 253 282 347 331 320 314 315 313 314 329 344 4 64 64 69 61 61 66 69 63 59 74 88 86 91 93 91
164 157 161 170 169 148 124 167 188 213 218 202 228 235 235 246 243 240 231 241 256 267 275 255 259 247 247 271 300 308 308 306 306 307 311 323 341 335 37 74 97 86 87 71 68 72 72 74 85 82 80 89 97 97
154 156 161 168 169 114 119 144 179 240 223 203 224 233 239 247 252 244 243 240 243 245 231 235 245 261 271 277 287 299 298 298 300 303 315 353 29 15 44 66 91 86 70 76 67 65 65 70 71 81 82 85 85 88
154 156 161 168 160 106 146 163 183 211 217 229 234 242 255 241 250 245 247 244 237 237 243 250 270 280 283 281 288 287 300 305 303 294 294 337 27 61 64 81 83 78 82 75 70 67 68 69 72 74 76 75 75 77
134 138 135 161 128 189 173 184 178 178 220 222 238 226 258 242 246 242 241 227 245 250 256 270 278 285 288 290 301 313 297 333 322 343 18 23 53 67 62 64 74 75 75 72 67 78 86 86 80 81 81 79 78 82
137 148 145 156 181 189 181 177 193 205 213 218 212 233 239 237 237 215 240 240 259 266 277 277 276 279 283 297 314 301 289 290 85 75 63 66 67 67 63 67 67 66 75 81 81 84 96 93 90 86 82 77 76 76
172 163 176 184 186 172 172 193 208 213 213 212 213 239 227 218 202 222 248 272 285 301 321 10 131 147 164 110 138 101 67 56 79 89 81 80 83 80 75 72 70 71 73 81 86 89 92 96 90 77 69 65 57 57
170 188 184 187 190 188 208 189 187 199 224 190 214 237 215 191 208 228 245 255 260 276 115 99 95 96 80 44 95 78 55 57 66 99 80 78 90 95 76 62 68 73 73 72 74 77 81 75 62 43 30 17 19 30
218 200 197 192 179 205 193 188 194 197 182 192 213 240 193 169 181 211 318 25 77 78 87 89 75 82 80 65 58 50 46 62 63 73 58 51 44 32 36 39 63 47 29 0 345 332 321 338 340 335 330 343 353 326
224 200 210 213 184 167 218 216 185 186 187 208 204 196 177 66 47 21 50 49 48 58 63 73 70 67 70 64 61 68 73 74 73 71 58 55 54 51 41 31 33 32 23 25 20 356 314 316 315 310 318 360 22 6
245 242 226 199 199 204 237 174 189 156 112 117 123 68 73 87 38 59 72 66 58 61 59 56 56 54 58 70 63 55 44 39 36 44 62 49 54 56 52 48 52 41 34 23 40 26 15 355 3 50 74 89 240 78
255 285 257 259 132 57 29 27 47 48 49 91 90 83 75 76 100 86 82 71 60 57 52 48 45 53 61 61 63 58 52 48 49 58 67 63 59 49 46 42 37 34 33 33 48 39 23 42 52 62 67 73 68 73
33 33 76 67 73 61 50 91 96 92 89 92 98 100 96 93 83 79 73 62 48 44 43 47 55 64 68 70 66 62 57 55 56 54 54 49 40 36 33 31 27 18 24 41 37 25 4 332 327 17 25 43 65 86
83 88 85 84 80 87 91 94 93 94 94 93 92 95 101 98 81 66 63 61 55 55 64 65 67 67 69 69 69 68 62 60 60 59 59 53 51 47 42 41 41 46 54 62 74 81 56 58 65 69 62 71 76 73
91 93 97 96 94 93 91 89 89 90 91 90 94 100 102 94 83 67 57 65 65 70 74 75 72 69 70 74 76 76 74 65 57 52 48 45 39 32 30 37 45 51 54 62 66 67 70 74 76 75 72 71 69 67
99 98 98 100 103 102 99 93 85 85 81 77 76 81 79 79 77 68 63 81 85 78 76 82 83 86 81 76 70 66 57 49 41 32 27 29 34 41 48 49 49 50 52 57 63 63 63 65 70 72 74 73 71 67
Wind_Speed_850mb
43 52 46 42 39 38 39 37 34 29 29 25 23 18 8 9 16 15 10 15 13 12 30 36 33 35 31 24 16 17 18 13 13 9 8 14 21 29 37 50 45 40 20 34 37 45 52 14 11 34 13 4 6 4
41 43 49 49 40 41 35 37 30 27 29 28 27 22 15 15 15 17 24 21 20 28 31 44 39 39 41 38 37 16 17 11 6 6 6 7 11 14 30 32 36 40 40 29 22 28 1 3 19 7 3 5 4 8
30 32 35 47 41 39 37 34 32 33 30 23 25 23 21 18 20 19 26 26 22 18 39 29 24 21 33 39 45 35 36 36 23 17 2 5 11 7 12 22 22 39 49 31 34 41 37 26 11 3 3 5 4 5
30 30 32 36 39 36 35 34 31 34 29 26 24 23 22 19 21 22 22 22 17 10 10 17 9 19 23 29 40 50 51 30 17 11 2 6 6 10 5 10 7 19 23 26 39 42 15 14 13 9 6 10 11 11
31 32 32 32 34 34 35 34 34 33 30 27 28 22 21 19 20 19 17 17 17 17 9 37 57 16 14 31 43 44 48 49 41 16 9 7 9 12 13 12 23 17 23 10 11 27 25 28 19 20 24 24 23 24
26 30 32 31 31 33 32 29 37 35 24 30 29 18 21 22 25 14 6 15 21 23 8 7 17 18 9 10 24 37 46 44 38 12 12 17 32 11 9 24 46 57 65 47 47 55 47 48 45 43 42 40 41 35
26 27 30 37 31 36 31 25 25 34 24 21 22 22 26 26 25 18 3 6 6 11 6 11 10 7 7 3 4 11 25 21 24 13 15 37 37 23 9 35 42 51 40 45 51 50 65 64 59 60 55 55 53 50
25 27 27 26 24 25 31 28 28 27 24 26 29 27 24 24 27 29 27 18 11 6 6 6 10 16 8 4 4 8 14 25 16 16 15 23 23 19 13 34 50 55 59 59 62 63 67 62 61 63 58 52 53 52
29 31 28 29 29 29 29 29 29 26 30 28 25 26 20 21 20 23 18 15 13 11 5 8 7 6 3 12 6 6 11 8 13 9 13 10 9 15 22 33 24 31 42 46 49 51 53 57 59 59 59 60 60 59
23 30 35 34 33 30 29 30 31 32 31 32 30 15 10 16 13 12 12 8 10 10 12 12 18 18 32 28 11 6 13 5 6 9 6 8 15 54 57 52 39 23 27 29 37 46 45 47 53 57 59 61 60 55
24 25 29 30 32 36 31 33 34 41 38 43 15 8 16 24 17 8 6 10 11 8 14 14 23 18 10 8 5 10 5 9 6 6 7 7 11 13 8 11 19 37 46 52 55 60 61 59 57 58 57 54 54 56
36 30 32 31 31 31 34 38 39 49 36 30 18 30 27 9 5 5 7 8 10 8 15 12 6 12 10 11 9 9 8 6 10 8 7 8 4 5 13 28 46 71 67 63 56 50 47 47 47 49 53 52 54 56
32 43 36 38 36 36 39 41 40 42 38 30 12 12 10 8 9 10 13 9 8 13 12 12 8 9 10 12 11 7 9 10 8 7 7 9 7 13 39 52 82 95 75 53 39 31 26 26 28 32 33 29 28 24
28 37 39 40 40 41 40 48 46 48 42 9 12 11 10 9 11 12 12 2 5 9 9 14 11 8 12 7 7 8 7 6 7 8 11 9 29 52 61 90 83 78 53 38 20 9 17 19 16 14 10 9 7 6
25 26 34 37 35 30 40 53 48 56 8 9 10 9 14 16 11 7 11 11 12 10 14 11 11 7 7 7 5 7 7 8 9 10 15 38 58 64 82 80 67 46 26 15 12 16 19 19 11 13 12 7 5 4
22 24 34 41 41 37 30 52 55 41 9 7 8 8 9 11 14 15 15 16 9 11 8 8 5 3 6 5 7 11 7 9 10 12 39 57 80 83 79 63 33 16 18 18 17 18 14 13 14 9 10 15 17 17
24 12 32 39 45 37 56 60 28 10 11 8 12 18 10 8 9 5 10 6 2 6 5 5 2 4 6 6 7 6 7 15 39 56 57 72 71 73 50 29 23 26 25 24 26 29 26 25 23 21 20 19 18 25
15 27 36 46 52 53 49 17 9 10 10 16 11 13 17 13 9 9 10 10 8 7 8 7 11 9 8 8 10 9 33 54 58 53 71 75 56 40 21 15 22 29 35 36 32 39 37 37 40 48 48 47 49 49
24 35 44 44 59 38 10 14 7 7 14 8 16 12 11 13 16 16 11 11 12 11 10 9 10 7 9 15 26 36 49 40 59 70 61 48 21 17 12 17 19 24 24 31 36 37 33 32 32 34 38 37 39 38
38 37 42 47 58 9 7 7 12 6 7 6 11 12 14 16 13 15 17 19 18 12 12 9 14 32 36 39 33 40 62 70 61 50 44 21 13 12 12 12 14 15 22 23 25 22 27 26 25 26 25 22 22 23
58 52 45 35 29 5 4 9 11 8 6 8 5 12 14 15 21 22 24 26 21 19 22 32 40 41 38 36 53 52 60 34 35 27 26 15 12 12 15 12 14 16 19 21 26 26 27 28 28 28 29 28 26 25
36 46 39 37 5 4 3 8 5 7 6 4 5 9 11 15 22 22 18 20 19 35 39 39 37 31 47 55 47 26 15 14 15 6 10 11 11 11 13 11 14 19 21 21 23 22 23 23 23 24 26 26 25 22
23 16 9 8 8 7 5 9 9 7 6 5 5 5 7 7 6 4 9 13 17 23 27 35 39 32 38 17 9 13 10 5 8 13 16 19 18 19 20 20 20 21 19 18 19 20 19 21 21 21 20 21 22 22
19 10 6 6 8 7 7 9 8 6 7 4 4 5 6 8 6 7 6 9 23 19 21 8 18 19 5 2 4 10 8 4 7 9 10 13 19 18 19 21 22 22 21 19 19 18 16 14 12 14 15 16 15 15
8 10 9 8 10 9 7 7 9 7 6 8 7 6 5 9 5 4 4 8 25 16 19 36 27 16 8 8 14 18 18 15 14 13 10 11 8 8 9 9 9 10 11 12 13 11 9 7 7 7 6 7 10 7
9 15 14 18 14 8 10 8 12 12 6 9 10 7 10 5 5 3 4 12 14 18 14 9 10 11 12 14 12 13 16 16 12 14 14 10 9 11 14 11 12 12 9 3 2 4 4 5 8 9 10 8 9 6
7 9 13 18 10 11 8 8 9 7 11 13 8 10 7 5 9 8 13 22 23 25 26 25 24 23 21 21 22 25 25 22 22 20 19 16 17 16 15 12 11 10 12 11 9 5 5 7 9 9 7 7 9 7
9 6 7 10 16 23 8 8 11 3 5 3 5 7 6 5 5 9 23 27 24 24 24 31 32 28 28 24 19 17 15 14 17 12 10 16 19 20 20 17 11 15 11 8 9 10 9 9 8 6 9 6 3 5
6 7 6 7 2 11 17 10 11 14 18 34 24 13 10 10 9 12 20 23 22 24 24 21 20 18 20 23 24 23 21 19 19 18 18 19 18 22 20 19 17 16 16 20 15 16 16 19 22 19 14 14 14 13
16 16 31 38 20 12 15 22 35 37 44 49 51 48 40 34 32 29 29 28 29 28 25 22 20 18 20 23 28 32 33 32 29 26 25 25 24 22 22 22 20 18 14 11 12 13 15 12 10 15 13 9 9 11
20 38 44 41 36 38 41 41 44 45 44 45 44 45 40 33 32 31 29 26 30 33 31 33 34 33 31 29 28 30 34 36 36 35 30 26 26 26 26 26 24 22 21 20 18 17 14 17 18 19 19 16 16 16
39 40 39 32 35 35 35 36 36 37 33 30 29 32 32 30 29 24 24 23 30 33 34 34 36 35 32 32 37 41 39 37 35 33 29 26 23 23 22 21 20 21 21 21 22 23 22 23 22 22 23 23 22 22
32 30 30 30 28 26 23 24 25 25 26 22 19 18 17 18 14 11 18 20 26 27 24 23 25 30 33 33 32 32 32 33 32 29 27 26 27 24 21 20 19 20 18 18 20 19 20 19 20 20 20 20 19 18
Wind_Direction_850mb
240 236 236 235 238 234 239 239 237 235 234 239 226 219 218 262 257 239 241 231 228 235 275 273 270 264 264 254 257 307 308 214 264 229 249 254 258 245 245 249 252 247 220 223 234 242 249 224 206 230 301 64 195 151
239 239 235 234 233 231 236 231 230 233 231 232 220 224 215 235 251 248 250 254 261 246 263 279 265 260 257 254 264 255 263 290 285 297 13 321 279 267 249 250 243 243 254 256 248 231 344 140 242 36 358 279 293 310
236 237 235 226 229 225 227 225 230 231 221 223 219 227 233 231 234 249 249 260 266 271 293 270 270 274 257 246 236 238 247 245 251 269 326 284 264 325 268 254 295 260 258 259 271 250 255 247 237 217 154 96 57 19
238 232 225 222 221 224 220 221 232 215 224 225 228 229 232 230 226 243 250 249 259 263 275 290 323 282 269 252 238 233 242 248 249 262 265 249 262 193 264 306 301 287 330 257 250 250 259 228 193 132 328 314 310 303
237 223 220 219 219 216 218 224 221 221 224 229 219 218 226 224 227 235 244 251 250 228 290 294 303 276 309 237 233 232 233 238 250 242 221 232 240 270 275 267 248 239 273 295 277 336 319 288 298 288 300 299 308 308
226 219 219 216 215 213 212 226 220 207 217 223 219 231 218 217 216 215 242 262 243 242 282 288 309 293 269 265 237 235 233 235 232 201 231 241 251 249 269 260 271 267 256 255 262 278 283 280 284 285 288 286 289 286
217 215 220 216 217 216 205 219 214 202 209 215 223 214 203 220 207 190 240 180 178 201 253 285 264 224 269 322 246 221 206 207 219 231 238 253 255 204 249 258 274 280 277 264 261 269 271 273 278 280 281 281 281 280
222 209 216 212 211 201 198 203 209 219 227 213 213 211 203 211 216 224 236 249 258 217 230 275 273 261 193 231 180 200 199 214 217 225 233 231 238 221 255 256 261 263 261 265 268 268 270 274 275 274 276 275 274 274
221 216 211 204 202 204 205 206 204 201 195 192 191 185 182 191 203 217 230 244 241 229 256 245 275 339 337 266 243 237 214 208 228 232 231 233 222 232 243 254 281 301 291 283 280 278 276 274 272 271 272 271 269 269
219 213 211 207 208 203 200 194 192 185 177 180 173 154 171 163 182 185 190 204 212 220 227 247 242 272 306 294 280 261 180 241 243 228 200 223 249 254 264 273 288 302 317 305 298 288 281 273 271 269 268 268 268 267
219 211 201 198 199 196 200 190 188 176 176 166 148 129 143 158 153 165 198 217 190 229 216 234 234 250 263 261 289 263 276 189 243 193 228 238 248 255 170 276 310 327 315 300 290 283 278 273 273 274 275 272 268 268
217 202 195 194 192 193 190 184 176 170 170 171 145 132 138 159 163 197 210 192 229 249 188 234 238 221 251 239 257 244 263 248 257 162 236 259 70 146 283 308 313 319 314 305 297 280 273 271 270 268 267 270 272 271
212 216 207 201 202 201 196 188 184 181 159 144 144 147 166 160 198 216 197 205 223 194 207 207 223 203 224 232 250 259 244 239 313 233 248 281 23 317 332 326 316 314 311 311 303 286 274 284 293 287 280 278 278 271
215 209 200 200 187 182 179 181 185 164 149 144 157 147 219 180 229 216 232 46 130 241 250 271 287 220 214 227 251 252 256 285 254 235 245 7 354 332 321 313 309 307 318 314 299 318 346 333 330 325 300 284 267 223
189 187 179 178 181 173 169 176 172 174 142 165 174 208 207 229 241 238 237 241 233 267 279 279 261 233 219 240 243 297 256 250 248 280 337 349 331 314 308 305 310 322 327 328 342 339 347 351 5 33 39 65 57 46
183 166 183 182 180 178 173 168 171 176 142 171 218 236 218 235 228 216 216 236 248 255 263 269 283 266 239 251 227 232 240 248 320 353 336 325 315 316 317 329 349 4 18 25 15 10 11 13 5 5 53 57 56 63
155 153 168 163 165 160 164 160 156 174 186 213 225 224 237 290 279 212 218 245 285 313 318 313 278 278 308 266 278 238 266 333 325 320 321 310 308 314 332 351 52 41 41 45 49 52 49 51 59 77 88 91 76 85
161 162 159 157 160 162 161 147 135 171 206 224 229 200 214 245 261 236 221 234 264 299 299 297 310 238 250 253 282 347 331 320 314 315 313 314 329 344 4 64 64 69 61 61 66 69 63 59 74 88 86 91 93 91
164 157 161 170 169 148 124 167 188 213 218 202 228 235 235 246 243 240 231 241 256 267 275 255 259 247 247 271 300 308 308 306 306 307 311 323 341 335 37 74 97 86 87 71 68 72 72 74 85 82 80 89 97 97
154 156 161 168 169 114 119 144 179 240 223 203 224 233 239 247 252 244 243 240 243 245 231 235 245 261 271 277 287 299 298 298 300 303 315 353 29 15 44 66 91 86 70 76 67 65 65 70 71 81 82 85 85 88
154 156 161 168 160 106 146 163 183 211 217 229 234 242 255 241 250 245 247 244 237 237 243 250 270 280 283 281 288 287 300 305 303 294 294 337 27 61 64 81 83 78 82 75 70 67 68 69 72 74 76 75 75 77
134 138 135 161 128 189 173 184 178 178 220 222 238 226 258 242 246 242 241 227 245 250 256 270 278 285 288 290 301 313 297 333 322 343 18 23 53 67 62 64 74 75 75 72 67 78 86 86 80 81 81 79 78 82
137 148 145 156 181 189 181 177 193 205 213 218 212 233 239 237 237 215 240 240 259 266 277 277 276 279 283 297 314 301 289 290 85 75 63 66 67 67 63 67 67 66 75 81 81 84 96 93 90 86 82 77 76 76
172 163 176 184 186 172 172 193 208 213 213 212 213 239 227 218 202 222 248 272 285 301 321 10 131 147 164 110 138 101 67 56 79 89 81 80 83 80 75 72 70 71 73 81 86 89 92 96 90 77 69 65 57 57
170 188 184 187 190 188 208 189 187 199 224 190 214 237 215 191 208 228 245 255 260 276 115 99 95 96 80 44 95 78 55 57 66 99 80 78 90 95 76 62 68 73 73 72 74 77 81 75 62 43 30 17 19 30
218 200 197 192 179 205 193 188 194 197 182 192 213 240 193 169 181 211 318 25 77 78 87 89 75 82 80 65 58 50 46 62 63 73 58 51 44 32 36 39 63 47 29 0 345 332 321 338 340 335 330 343 353 326
224 200 210 213 184 167 218 216 185 186 187 208 204 196 177 66 47 21 50 49 48 58 63 73 70 67 70 64 61 68 73 74 73 71 58 55 54 51 41 31 33 32 23 25 20 356 314 316 315 310 318 360 22 6
245 242 226 199 199 204 237 174 189 156 112 117 123 68 73 87 38 59 72 66 58 61 59 56 56 54 58 70 63 55 44 39 36 44 62 49 54 56 52 48 52 41 34 23 40 26 15 355 3 50 74 89 240 78
255 285 257 259 132 57 29 27 47 48 49 91 90 83 75 76 100 86 82 71 60 57 52 48 45 53 61 61 63 58 52 48 49 58 67 63 59 49 46 42 37 34 33 33 48 39 23 42 52 62 67 73 68 73
33 33 76 67 73 61 50 91 96 92 89 92 98 100 96 93 83 79 73 62 48 44 43 47 55 64 68 70 66 62 57 55 56 54 54 49 40 36 33 31 27 18 24 41 37 25 4 332 327 17 25 43 65 86
83 88 85 84 80 87 91 94 93 94 94 93 92 95 101 98 81 66 63 61 55 55 64 65 67 67 69 69 69 68 62 60 60 59 59 53 51 47 42 41 41 46 54 62 74 81 56 58 65 69 62 71 76 73
91 93 97 96 94 93 91 89 89 90 91 90 94 100 102 94 83 67 57 65 65 70 74 75 72 69 70 74 76 76 74 65 57 52 48 45 39 32 30 37 45 51 54 62 66 67 70 74 76 75 72 71 69 67
99 98 98 100 103 102 99 93 85 85 81 77 76 81 79 79 77 68 63 81 85 78 76 82 83 86 81 76 70 66 57 49 41 32 27 29 34 41 48 49 49 50 52 57 63 63 63 65 70 72 74 73 71 67